FW7308 Weather Reports


time (UTC)temp
F
wind
direction
speed
knots
gust
knots
rain 1hr
in
rain 24hr
in
rain mn
in
humidity
%
barometer
mb
20260505224232 64 335 4.3 7.0 0.00 0.00 0.00 81 1008.7
20260505223631 65 340 1.7 1.7 0.00 0.00 0.00 81 1008.7
20260505223232 66 320 2.6 4.3 0.00 0.00 0.00 74 1008.4
20260505222631 69 317 8.7 14.8 0.00 0.00 0.00 66 1008.4
20260505222131 69 313 2.6 4.3 0.00 0.00 0.00 63 1008.0
20260505221130 70 335 1.7 2.6 0.00 0.00 0.00 60 1007.5
20260505220630 71 325 0.9 1.7 0.00 0.00 0.00 57 1007.3
20260505220129 73 358 2.6 2.6 0.00 0.00 0.00 54 1007.3
20260505215127 77 318 1.7 2.6 0.00 0.00 0.00 41 1007.2
20260505214629 76 343 1.7 2.6 0.00 0.00 0.00 41 1007.0
20260505214128 76 352 0.9 1.7 0.00 0.00 0.00 41 1007.0
20260505213628 76 319 1.7 4.3 0.00 0.00 0.00 43 1006.8
20260505213126 76 341 0.9 1.7 0.00 0.00 0.00 42 1007.0
20260505212628 77 353 7.0 11.3 0.00 0.00 0.00 42 1007.3
20260505212130 77 322 1.7 4.3 0.00 0.00 0.00 42 1007.0
20260505211627 77 2 1.7 4.3 0.00 0.00 0.00 41 1007.0
20260505211125 77 339 4.3 7.8 0.00 0.00 0.00 40 1007.0
20260505210624 78 228 7.0 9.6 0.00 0.00 0.00 40 1007.0
20260505210125 79 323 2.6 5.2 0.00 0.00 0.00 40 1006.6
20260505205624 79 241 4.3 5.2 0.00 0.00 0.00 40 1006.3
20260505205124 78 44 6.1 9.6 0.00 0.00 0.00 40 1006.3
20260505204623 79 76 3.5 6.1 0.00 0.00 0.00 40 1006.3
20260505204124 79 336 5.2 9.6 0.00 0.00 0.00 40 1006.3
20260505203623 78 320 2.6 4.3 0.00 0.00 0.00 41 1006.1
20260505203122 78 322 3.5 5.2 0.00 0.00 0.00 40 1006.1
20260505202622 78 143 8.7 13.0 0.00 0.00 0.00 40 1006.3
20260505202123 78 258 4.3 6.1 0.00 0.00 0.00 40 1006.3
20260505201622 79 171 12.2 20.9 0.00 0.00 0.00 40 1006.3
20260505201121 79 320 1.7 4.3 0.00 0.00 0.00 40 1005.9
20260505200722 79 301 3.5 6.1 0.00 0.00 0.00 39 1006.3
20260505200123 78 318 2.6 6.1 0.00 0.00 0.00 39 1006.6
20260505195621 79 111 7.0 8.7 0.00 0.00 0.00 39 1006.6
20260505195120 79 323 0.9 1.7 0.00 0.00 0.00 40 1006.6
20260505194619 78 7 5.2 9.6 0.00 0.00 0.00 39 1006.8
20260505194120 77 350 0.9 1.7 0.00 0.00 0.00 39 1006.8
20260505193619 78 277 4.3 14.8 0.00 0.00 0.00 39 1006.6
20260505192618 78 144 4.3 8.7 0.00 0.00 0.00 39 1006.8
20260505192120 79 170 4.3 7.8 0.00 0.00 0.00 37 1007.0
20260505191122 79 312 5.2 8.7 0.00 0.00 0.00 37 1007.0
20260505190117 79 328 7.0 14.8 0.00 0.00 0.00 38 1006.6
20260505185618 80 177 8.7 13.9 0.00 0.00 0.00 37 1006.8
20260505185116 80 179 5.2 9.6 0.00 0.00 0.00 38 1007.0
20260505184647 80 329 1.7 4.3 0.00 0.00 0.00 37 1007.3
20260505184146 80 29 6.1 9.6 0.00 0.00 0.00 38 1007.2
20260505183646 79 321 3.5 7.0 0.00 0.00 0.00 37 1007.0
20260505183144 80 167 5.2 7.8 0.00 0.00 0.00 37 1007.3
20260505182643 81 272 6.1 11.3 0.00 0.00 0.00 36 1007.3
20260505182245 80 161 5.2 9.6 0.00 0.00 0.00 41 1007.2
20260505181644 80 290 9.6 17.4 0.00 0.00 0.00 38 1007.0
20260505181144 80 9 3.5 6.1 0.00 0.00 0.00 37 1007.3
20260505180644 79 300 6.1 11.3 0.00 0.00 0.00 38 1007.7
20260505175643 77 139 5.2 7.8 0.00 0.00 0.00 46 1007.7
20260505175142 78 216 6.1 8.7 0.00 0.00 0.00 43 1007.7
20260505174641 78 159 5.2 8.7 0.00 0.00 0.00 39 1007.7
20260505174142 78 287 4.3 7.8 0.00 0.00 0.00 37 1007.7
20260505173641 79 277 4.3 7.0 0.00 0.00 0.00 38 1008.2
20260505173141 79 20 7.8 17.4 0.00 0.00 0.00 37 1008.0
20260505172640 79 351 7.8 9.6 0.00 0.00 0.00 38 1008.0
20260505172139 79 162 8.7 11.3 0.00 0.00 0.00 39 1008.0
20260505171640 79 282 6.1 13.9 0.00 0.00 0.00 40 1008.0
20260505171139 78 352 7.0 13.0 0.00 0.00 0.00 38 1008.0
20260505160636 75 313 2.6 4.3 0.00 0.00 0.00 50 1009.1
20260505160134 74 147 9.6 12.2 0.00 0.00 0.00 51 1008.7
20260505153132 72 161 4.3 7.0 0.00 0.00 0.00 56 1009.8
20260505152632 72 187 7.0 8.7 0.00 0.00 0.00 55 1009.8
20260505152133 70 165 7.8 12.2 0.00 0.00 0.00 58 1009.8
20260505151632 70 146 8.7 11.3 0.00 0.00 0.00 58 1009.8
20260505151131 69 160 7.8 7.8 0.00 0.00 0.00 59 1010.1
20260505150630 69 227 6.1 7.8 0.00 0.00 0.00 58 1009.8
20260505150129 68 125 4.3 7.0 0.00 0.00 0.00 60 1010.1
20260505140627 63 120 5.2 6.1 0.00 0.00 0.00 68 1010.3
20260505130122 58 146 6.1 8.7 0.00 0.00 0.00 76 1010.1
20260505124621 56 163 7.8 9.6 0.00 0.00 0.00 79 1010.3
20260505124120 55 170 4.3 6.1 0.00 0.00 0.00 80 1010.1
20260505123720 55 173 5.2 7.0 0.00 0.00 0.00 81 1010.1
20260505123121 54 123 7.0 12.2 0.00 0.00 0.00 81 1010.1
20260505122119 53 146 7.8 11.3 0.00 0.00 0.00 84 1010.1
20260505121622 52 142 7.0 9.6 0.00 0.00 0.00 86 1010.1
20260505121120 51 192 2.6 2.6 0.00 0.00 0.00 87 1010.1
20260505120619 51 206 4.3 6.1 0.00 0.00 0.00 87 1010.1
20260505120118 52 213 4.3 6.1 0.00 0.00 0.00 86 1010.3
20260505115619 52 161 6.1 7.8 0.00 0.00 0.00 85 1010.1
20260505115118 52 57 2.6 2.6 0.00 0.00 0.00 84 1010.1
20260505114617 53 143 3.5 6.1 0.00 0.00 0.00 83 1010.5
20260505113619 53 276 1.7 1.7 0.00 0.00 0.00 83 1010.5
20260505112616 53 141 7.0 8.7 0.00 0.00 0.00 84 1010.7
20260505112145 52 121 3.5 5.2 0.00 0.00 0.00 85 1010.5
20260505111646 51 90 4.3 8.7 0.00 0.00 0.00 86 1010.1
20260505110645 51 156 4.3 5.2 0.00 0.00 0.00 86 1010.1
20260505110144 50 186 4.3 6.1 0.00 0.00 0.00 87 1010.1
20260505102141 48 107 3.5 5.2 0.00 0.00 0.00 91 1009.8
20260505101642 48 173 4.3 6.1 0.00 0.00 0.00 90 1009.8
20260505101142 48 59 2.6 4.3 0.00 0.00 0.00 90 1009.4
20260505100641 48 9 2.6 2.6 0.00 0.00 0.00 90 1009.6
20260505100140 48 38 2.6 2.6 0.00 0.00 0.00 90 1009.8
20260505095641 48 19 1.7 2.6 0.00 0.00 0.00 90 1009.8
20260505095140 48 126 2.6 5.2 0.00 0.00 0.00 90 1009.8
20260505094639 48 86 2.6 4.3 0.00 0.00 0.00 90 1009.8
20260505094139 48 21 1.7 2.6 0.00 0.00 0.00 89 1009.8
20260505093640 49 59 2.6 2.6 0.00 0.00 0.00 88 1009.8
20260505093139 49 259 4.3 6.1 0.00 0.00 0.00 87 1009.6
20260505092640 49 319 1.7 1.7 0.00 0.00 0.00 87 1009.4
20260505092140 49 267 4.3 5.2 0.00 0.00 0.00 87 1009.8
20260505091639 49 18 1.7 1.7 0.00 0.00 0.00 87 1009.8
20260505091138 49 332 1.7 1.7 0.00 0.00 0.00 87 1009.8
20260505090638 49 141 4.3 5.2 0.00 0.00 0.00 86 1009.8
20260505090136 50 253 2.6 7.0 0.00 0.00 0.00 86 1010.0
20260505085639 50 342 1.7 4.3 0.00 0.00 0.00 85 1009.8
20260505085136 50 224 4.3 7.0 0.00 0.00 0.00 85 1009.8
20260505084636 50 317 0.9 1.7 0.00 0.00 0.00 85 1010.0
20260505084136 50 21 1.7 1.7 0.00 0.00 0.00 85 1010.1
20260505083135 50 356 0.9 1.7 0.00 0.00 0.00 85 1010.1
20260505082734 50 8 1.7 1.7 0.00 0.00 0.00 85 1010.1
20260505082134 50 360 0.9 1.7 0.00 0.00 0.00 85 1010.1
20260505081635 50 275 1.7 2.6 0.00 0.00 0.00 85 1010.1
20260505080635 50 323 2.6 4.3 0.00 0.00 0.00 85 1009.8
20260505080133 50 37 2.6 2.6 0.00 0.00 0.00 84 1009.8
20260505075634 50 203 2.6 2.6 0.00 0.00 0.00 84 1010.0
20260505075134 50 3 2.6 2.6 0.00 0.00 0.00 84 1010.1
20260505074734 50 88 2.6 4.3 0.00 0.00 0.00 83 1010.1
20260505074137 50 205 3.5 7.0 0.00 0.00 0.00 83 1010.1
20260505073632 50 334 0.9 1.7 0.00 0.00 0.00 83 1010.1
20260505073131 50 0 0.9 1.7 0.00 0.00 0.00 82 1010.1
20260505072630 50 358 0.9 1.7 0.00 0.00 0.00 82 1010.1
20260505072130 50 350 2.6 2.6 0.00 0.00 0.00 82 1010.1
20260505071629 50 183 2.6 4.3 0.00 0.00 0.00 82 1010.1
20260505071130 50 25 1.7 2.6 0.00 0.00 0.00 83 1010.3
20260505070629 50 91 1.7 2.6 0.00 0.00 0.00 82 1010.5
20260505070128 50 51 1.7 2.6 0.00 0.00 0.00 82 1010.5
20260505065629 50 133 2.6 4.3 0.00 0.00 0.00 81 1010.1
20260505065129 51 6 2.6 4.3 0.00 0.00 0.00 81 1010.5
20260505064628 51 58 2.6 4.3 0.00 0.00 0.00 81 1010.5
20260505064127 51 193 3.5 5.2 0.00 0.00 0.00 80 1010.1
20260505063125 51 128 2.6 4.3 0.00 0.00 0.00 80 1010.5
20260505062126 51 131 2.6 2.6 0.00 0.00 0.00 80 1010.5
20260505061625 51 145 4.3 8.7 0.00 0.00 0.00 79 1010.5
20260505061124 51 137 5.2 6.1 0.00 0.00 0.00 79 1010.5
20260505060627 51 144 2.6 6.1 0.00 0.00 0.00 79 1010.5
20260505055725 51 183 6.1 7.8 0.00 0.00 0.00 78 1010.5
20260505055125 51 188 5.2 7.0 0.00 0.00 0.00 79 1010.5
20260505054624 51 99 3.5 5.2 0.00 0.00 0.00 80 1010.5
20260505054123 50 34 2.6 2.6 0.00 0.00 0.00 80 1010.5
20260505053624 51 71 5.2 6.1 0.00 0.00 0.00 80 1010.5
20260505053121 51 45 2.6 4.3 0.00 0.00 0.00 80 1010.5
20260505052622 51 357 1.7 1.7 0.00 0.00 0.00 79 1010.5
20260505052122 51 18 3.5 5.2 0.00 0.00 0.00 79 1010.5
20260505051621 51 61 3.5 4.3 0.00 0.00 0.00 79 1010.5
20260505051122 51 70 1.7 4.3 0.00 0.00 0.00 79 1010.5
20260505050121 51 27 1.7 2.6 0.00 0.00 0.00 78 1010.9
20260505041117 53 11 1.7 2.6 0.00 0.00 0.00 74 1010.5
20260505040618 53 137 3.5 5.2 0.00 0.00 0.00 74 1010.5
20260505040117 53 13 2.6 4.3 0.00 0.00 0.00 73 1010.5
20260505035616 53 59 3.5 5.2 0.00 0.00 0.00 73 1010.5
20260505035145 53 50 2.6 4.3 0.00 0.00 0.00 72 1010.5
20260505034644 54 128 5.2 8.7 0.00 0.00 0.00 72 1010.5
20260505034145 54 48 3.5 4.3 0.00 0.00 0.00 71 1010.3
20260505033644 54 120 3.5 5.2 0.00 0.00 0.00 71 1010.1
20260505033143 54 116 3.5 7.8 0.00 0.00 0.00 70 1010.1
20260505032645 54 113 3.5 5.2 0.00 0.00 0.00 70 1010.1
20260505032144 54 218 4.3 5.2 0.00 0.00 0.00 69 1010.1
20260505031643 55 57 3.5 5.2 0.00 0.00 0.00 68 1010.1
20260505031142 55 69 2.6 4.3 0.00 0.00 0.00 68 1010.5
20260505030643 55 42 1.7 2.6 0.00 0.00 0.00 68 1010.5
20260505030143 55 71 2.6 2.6 0.00 0.00 0.00 67 1010.1
20260505025642 56 40 2.6 2.6 0.00 0.00 0.00 66 1010.3
20260505025143 56 79 2.6 4.3 0.00 0.00 0.00 65 1010.5
20260505024642 56 172 4.3 6.1 0.00 0.00 0.00 64 1010.5
20260505024141 57 90 4.3 6.1 0.00 0.00 0.00 63 1010.5
20260505023641 57 114 5.2 6.1 0.00 0.00 0.00 63 1010.5
20260505023141 57 69 2.6 4.3 0.00 0.00 0.00 62 1010.5
20260505022641 57 49 3.5 6.1 0.00 0.00 0.00 61 1010.5
20260505022140 57 83 3.5 5.2 0.00 0.00 0.00 60 1010.5
20260505021639 57 79 3.5 4.3 0.00 0.00 0.00 59 1010.5
20260505021139 58 38 1.7 4.3 0.00 0.00 0.00 58 1010.5
20260505020743 58 80 3.5 5.2 0.00 0.00 0.00 57 1010.5
20260505020139 58 39 2.6 4.3 0.00 0.00 0.00 56 1010.5
20260505015638 58 306 2.6 4.3 0.00 0.00 0.00 55 1010.5
20260505015138 57 115 4.3 6.1 0.00 0.00 0.00 57 1010.3
20260505014639 58 343 0.9 1.7 0.00 0.00 0.00 55 1010.1
20260505014138 59 340 0.9 0.9 0.00 0.00 0.00 55 1010.1
20260505013637 59 348 0.9 1.7 0.00 0.00 0.00 54 1010.1
20260505013136 58 335 0.9 0.9 0.00 0.00 0.00 55 1010.1
20260505012635 58 329 0.9 0.9 0.00 0.00 0.00 54 1010.1
20260505012136 59 334 0.9 0.9 0.00 0.00 0.00 55 1010.1
20260505011635 60 344 0.9 1.7 0.00 0.00 0.00 53 1010.1
20260505011135 60 336 0.0 0.9 0.00 0.00 0.00 52 1010.1
20260505010634 60 316 0.9 0.9 0.00 0.00 0.00 51 1010.1
20260505010135 61 355 0.9 1.7 0.00 0.00 0.00 50 1010.0
20260505005634 61 344 0.9 0.9 0.00 0.00 0.00 50 1009.8
20260505005134 60 4 1.7 2.6 0.00 0.00 0.00 50 1010.1
20260505004634 60 19 1.7 1.7 0.00 0.00 0.00 50 1009.8
20260505004134 60 331 0.0 0.9 0.00 0.00 0.00 51 1009.8
20260505003633 61 334 0.0 0.9 0.00 0.00 0.00 51 1009.8
20260505003132 61 336 0.9 0.9 0.00 0.00 0.00 50 1009.8
20260505002632 62 324 0.0 0.9 0.00 0.00 0.00 49 1009.6
20260505002133 62 0.0 0.0 0.00 0.00 0.00 49 1009.4
20260505001632 62 0.0 0.0 0.00 0.00 0.00 49 1009.4
20260505001131 61 343 0.9 1.7 0.00 0.00 0.00 49 1009.4
20260505000630 62 332 0.0 0.9 0.00 0.00 0.00 49 1009.4
20260505000129 62 0.0 0.0 0.00 0.00 0.00 48 1009.3
20260504235629 63 344 0.9 1.7 0.00 0.00 0.00 49 1009.1
20260504235130 63 337 0.9 0.9 0.00 0.00 0.00 48 1009.1
20260504234629 63 332 0.0 0.9 0.00 0.00 0.00 47 1009.1
20260504234128 64 0.0 0.0 0.00 0.00 0.00 46 1009.1
20260504233629 64 326 0.0 0.9 0.00 0.00 0.00 46 1009.1
20260504233129 64 313 0.9 0.9 0.00 0.00 0.00 46 1008.7
20260504232628 64 347 0.9 1.7 0.00 0.00 0.00 46 1008.7
20260504232127 65 314 0.9 0.9 0.00 0.00 0.00 45 1008.7
20260504231626 65 318 0.9 1.7 0.00 0.00 0.00 45 1008.7
20260504231127 65 346 0.9 1.7 0.00 0.00 0.00 45 1008.7
20260504230627 65 330 0.0 1.7 0.00 0.00 0.00 45 1008.7
20260504230126 65 324 0.0 0.9 0.00 0.00 0.00 44 1008.7
20260504225625 65 320 0.0 0.9 0.00 0.00 0.00 44 1008.7
20260504225126 66 311 0.0 0.9 0.00 0.00 0.00 44 1008.4
20260504224625 66 97 0.9 2.6 0.00 0.00 0.00 44 1008.4